When you browse on this site, cookies collect data to enhance your experience and personalize the content and advertising you see.
Visit our Privacy Policy to learn more. By continuing to use the site, you agree to this use of cookies and data.
  • In Lithuania
  • List of Countries
  • For 7 days
  • Water Temperature
  • Satellite Maps
  • Weather Map
  • Weather Widgets
  • user-avatar
    Login

    Hourly Weather Mayrhofen

    Today, 18 December, Tuesday

    Time Temperature Precipitation Wind Pressure Humidity
    00:00 -8°C° 0.1 mm 2 mps 619 mmHg 92%
    01:00 -8°C° 0 mm 1 mps 619 mmHg 92%
    02:00 -8°C° 0 mm 1 mps 619 mmHg 91%
    03:00 -9°C° 0 mm 1 mps 618 mmHg 90%
    04:00 -9°C° 0 mm 1 mps 618 mmHg 89%
    05:00 -9°C° 0 mm 1 mps 618 mmHg 86%
    06:00 -10°C° 0 mm 1 mps 618 mmHg 82%
    07:00 -10°C° 0 mm 1 mps 618 mmHg 83%
    08:00 -9°C° 0 mm 1 mps 618 mmHg 79%
    09:00 -7°C° 0 mm 1 mps 619 mmHg 75%
    10:00 -6°C° 0 mm 1 mps 619 mmHg 71%
    11:00 -3°C° 0 mm 1 mps 619 mmHg 69%
    12:00 -2°C° 0 mm 1 mps 620 mmHg 67%
    13:00 -1°C° 0 mm 1 mps 619 mmHg 63%
    14:00 -2°C° 0 mm 1 mps 619 mmHg 65%
    15:00 -3°C° 0 mm 1 mps 618 mmHg 67%
    16:00 -6°C° 0 mm 2 mps 617 mmHg 69%
    17:00 -7°C° 0 mm 2 mps 617 mmHg 66%
    18:00 -8°C° 0 mm 2 mps 617 mmHg 63%
    19:00 -8°C° 0 mm 2 mps 617 mmHg 60%
    20:00 -8°C° 0 mm 2 mps 617 mmHg 58%
    21:00 -8°C° 0 mm 2 mps 617 mmHg 57%
    22:00 -8°C° 0 mm 2 mps 616 mmHg 55%
    23:00 -8°C° 0 mm 2 mps 616 mmHg 54%

    Tomorrow, 19 December, Wednesday

    Time Temperature Precipitation Wind Pressure Humidity
    00:00 -8°C° 0 mm 2 mps 616 mmHg 53%
    01:00 -8°C° 0 mm 2 mps 616 mmHg 52%
    02:00 -7°C° 0 mm 2 mps 616 mmHg 52%
    03:00 -7°C° 0 mm 2 mps 616 mmHg 52%
    04:00 -7°C° 0 mm 2 mps 615 mmHg 52%
    05:00 -7°C° 0 mm 2 mps 615 mmHg 53%
    06:00 -7°C° 0 mm 2 mps 616 mmHg 54%
    07:00 -6°C° 0 mm 2 mps 616 mmHg 56%
    08:00 -5°C° 0 mm 2 mps 616 mmHg 58%
    09:00 -4°C° 0 mm 2 mps 616 mmHg 61%
    10:00 -3°C° 0 mm 2 mps 617 mmHg 63%
    11:00 -3°C° 0 mm 2 mps 617 mmHg 65%
    12:00 -2°C° 0 mm 2 mps 617 mmHg 67%
    13:00 -1°C° 0 mm 2 mps 616 mmHg 69%
    14:00 -3°C° 0 mm 2 mps 616 mmHg 70%
    15:00 -4°C° 0 mm 2 mps 615 mmHg 72%
    16:00 -5°C° 0 mm 2 mps 614 mmHg 74%
    17:00 -6°C° 0 mm 2 mps 614 mmHg 75%
    18:00 -7°C° 0 mm 2 mps 614 mmHg 75%
    19:00 -8°C° 0 mm 2 mps 613 mmHg 76%
    20:00 -7°C° 0 mm 2 mps 613 mmHg 77%
    21:00 -7°C° 0 mm 2 mps 614 mmHg 79%
    22:00 -6°C° 0 mm 2 mps 614 mmHg 81%
    23:00 -6°C° 0.4 mm 2 mps 614 mmHg 84%

    Day after tomorrow, 20 December, Thursday

    Time Temperature Precipitation Wind Pressure Humidity
    00:00 -4°C° 0.4 mm 1 mps 614 mmHg 88%
    01:00 -4°C° 0.4 mm 1 mps 615 mmHg 91%
    02:00 -4°C° 0.6 mm 1 mps 615 mmHg 92%
    03:00 -4°C° 0.6 mm 1 mps 615 mmHg 93%
    04:00 -4°C° 0.6 mm 1 mps 614 mmHg 94%
    05:00 -3°C° 0.4 mm 1 mps 615 mmHg 94%
    06:00 -3°C° 0.4 mm 1 mps 615 mmHg 93%
    07:00 -3°C° 0.4 mm 1 mps 615 mmHg 93%
    08:00 -3°C° 0.2 mm 1 mps 615 mmHg 92%
    09:00 -2°C° 0.2 mm 1 mps 616 mmHg 91%
    10:00 -2°C° 0.2 mm 1 mps 616 mmHg 91%
    11:00 -1°C° 0.2 mm 1 mps 616 mmHg 89%
    12:00 -1°C° 0.2 mm 1 mps 616 mmHg 88%
    13:00 0°C° 0.2 mm 1 mps 616 mmHg 87%
    14:00 -1°C° 0.2 mm 1 mps 616 mmHg 89%
    15:00 -1°C° 0.2 mm 1 mps 616 mmHg 90%
    16:00 -2°C° 0.2 mm 1 mps 616 mmHg 92%
    17:00 -3°C° 0.1 mm 1 mps 617 mmHg 91%
    18:00 -4°C° 0.1 mm 1 mps 617 mmHg 91%
    19:00 -6°C° 0.1 mm 1 mps 617 mmHg 91%
    20:00 -6°C° 0 mm 1 mps 617 mmHg 89%
    21:00 -7°C° 0 mm 1 mps 617 mmHg 88%
    22:00 -7°C° 0 mm 1 mps 617 mmHg 86%
    23:00 -7°C° 0 mm 1 mps 617 mmHg 84%

    21 December, Friday

    Time Temperature Precipitation Wind Pressure Humidity
    00:00 -9°C° 0 mm 2 mps 617 mmHg 83%
    01:00 -9°C° 0 mm 2 mps 617 mmHg 81%
    02:00 -9°C° 0 mm 2 mps 617 mmHg 80%
    03:00 -8°C° 0 mm 2 mps 617 mmHg 78%
    04:00 -8°C° 0 mm 2 mps 617 mmHg 77%
    05:00 -8°C° 0 mm 2 mps 617 mmHg 76%
    06:00 -8°C° 0 mm 2 mps 617 mmHg 74%
    07:00 -7°C° 0 mm 2 mps 617 mmHg 72%
    08:00 -7°C° 0 mm 3 mps 617 mmHg 71%
    09:00 -6°C° 0 mm 3 mps 617 mmHg 70%
    10:00 -5°C° 0 mm 3 mps 617 mmHg 69%
    11:00 -4°C° 0.1 mm 3 mps 617 mmHg 71%
    12:00 -2°C° 0.1 mm 3 mps 617 mmHg 72%
    13:00 -1°C° 0.1 mm 3 mps 617 mmHg 73%
    14:00 -1°C° 0.3 mm 3 mps 617 mmHg 75%
    15:00 -2°C° 0.3 mm 3 mps 617 mmHg 77%
    16:00 -2°C° 0.3 mm 2 mps 617 mmHg 79%
    17:00 -2°C° 0.4 mm 2 mps 617 mmHg 78%
    18:00 -2°C° 0.4 mm 2 mps 617 mmHg 78%
    19:00 -2°C° 0.4 mm 2 mps 617 mmHg 77%
    20:00 -2°C° 0.2 mm 2 mps 617 mmHg 77%
    21:00 -2°C° 0.2 mm 2 mps 617 mmHg 77%
    22:00 -2°C° 0.2 mm 2 mps 617 mmHg 77%
    23:00 -1°C° 0.1 mm 2 mps 617 mmHg 78%

    22 December, Saturday

    Time Temperature Precipitation Wind Pressure Humidity
    00:00 -1°C° 0.1 mm 2 mps 617 mmHg 80%
    01:00 -1°C° 0.1 mm 2 mps 617 mmHg 81%
    02:00 -1°C° 0.4 mm 2 mps 617 mmHg 82%
    03:00 +1°C° 0.4 mm 1 mps 617 mmHg 84%
    04:00 +1°C° 0.4 mm 1 mps 617 mmHg 86%
    05:00 +1°C° 0.2 mm 1 mps 617 mmHg 85%
    06:00 -1°C° 0.2 mm 2 mps 617 mmHg 85%
    07:00 -1°C° 0.2 mm 2 mps 616 mmHg 85%
    08:00 +1°C° 0.1 mm 2 mps 617 mmHg 85%
    09:00 +1°C° 0.1 mm 2 mps 617 mmHg 85%
    10:00 +2°C° 0.1 mm 2 mps 617 mmHg 85%
    11:00 +2°C° 0 mm 2 mps 617 mmHg 88%
    12:00 +4°C° 0 mm 1 mps 617 mmHg 91%
    13:00 +4°C° 0 mm 1 mps 617 mmHg 93%
    14:00 +3°C° 0 mm 1 mps 617 mmHg 92%
    15:00 +2°C° 0 mm 1 mps 617 mmHg 91%
    16:00 +2°C° 0 mm 1 mps 616 mmHg 90%
    17:00 -1°C° 0 mm 2 mps 616 mmHg 88%
    18:00 -1°C° 0 mm 2 mps 617 mmHg 87%
    19:00 -2°C° 0 mm 2 mps 617 mmHg 85%
    20:00 -2°C° 0.1 mm 2 mps 617 mmHg 86%
    21:00 -2°C° 0.1 mm 2 mps 617 mmHg 86%
    22:00 -2°C° 0.1 mm 2 mps 618 mmHg 86%
    23:00 -2°C° 0.1 mm 2 mps 618 mmHg 87%

    23 December, Sunday

    Time Temperature Precipitation Wind Pressure Humidity
    00:00 -2°C° 0.1 mm 2 mps 618 mmHg 88%
    01:00 -3°C° 0.1 mm 2 mps 618 mmHg 89%
    02:00 -3°C° 0.3 mm 2 mps 618 mmHg 89%
    03:00 -3°C° 0.3 mm 2 mps 618 mmHg 89%
    04:00 -3°C° 0.3 mm 2 mps 618 mmHg 90%
    05:00 -3°C° 0.3 mm 2 mps 618 mmHg 90%
    06:00 -1°C° 0.3 mm 1 mps 619 mmHg 90%
    07:00 -1°C° 0.3 mm 1 mps 619 mmHg 91%
    08:00 0°C° 0.4 mm 1 mps 619 mmHg 90%
    09:00 +1°C° 0.4 mm 1 mps 620 mmHg 90%
    10:00 +2°C° 0.4 mm 1 mps 620 mmHg 90%
    11:00 +2°C° 0.3 mm 1 mps 620 mmHg 91%
    12:00 +3°C° 0.3 mm 1 mps 620 mmHg 92%
    13:00 +3°C° 0.3 mm 1 mps 620 mmHg 93%
    14:00 +3°C° 0.4 mm 1 mps 619 mmHg 91%
    15:00 +3°C° 0.4 mm 1 mps 619 mmHg 90%
    16:00 +2°C° 0.4 mm 1 mps 619 mmHg 89%
    17:00 +2°C° 0.7 mm 1 mps 619 mmHg 89%
    18:00 +2°C° 0.7 mm 1 mps 619 mmHg 89%
    19:00 +2°C° 0.7 mm 1 mps 619 mmHg 89%
    20:00 +2°C° 0.3 mm 1 mps 619 mmHg 88%
    21:00 +1°C° 0.3 mm 1 mps 619 mmHg 88%
    22:00 +1°C° 0.3 mm 1 mps 619 mmHg 87%
    23:00 +2°C° 0.5 mm 1 mps 619 mmHg 87%
    Show more